Location: Omaha
(41.2590°N, 95.9380°W)
Time: 23:43:58
(UTC-05:00)

ISS - Pass Details

Date: 15 October 2017
Orbit: 401 x 408 km, 51.6° (Epoch: 21 October)

Event Time Altitude Azimuth Distance (km) Brightness Sun altitude
Rises 19:06:53 0° 306° (NW) 2,324 0.8 -5.4°
Reaches altitude 10° 19:08:58 10° 306° (NW) 1,462 -0.2 -5.8°
Maximum altitude 19:12:15 86° 36° (NE) 410 -3.8 -6.4°
Drops below altitude 10° 19:15:32 10° 125° (SE) 1,459 -1.5 -7.0°
Enters shadow 19:16:51 - 126° (SE) 2,000 -0.8 -7.2°
